User: anonymous   Login
Location: Kirchberg
(47.4114°N, 9.0398°E)
Time: 21:39:10
(UTC+00:00)
Language:

SeaSat 1 - Orbit

View from above orbital plane
View from above orbital plane
View from above satellite
View from above satellite

Ground track
Ground track

The orbit data is extracted from the following two-line orbital elements,

1 10967U 78064A   21134.57162232 -.00000042  00000-0  27807-4 0  9992
2 10967 107.9967  42.8698 0002334 257.9587 102.1296 14.43876910252302
Epoch (UTC): 14 May 2021 13:43:08
Eccentricity: 0.0002334
inclination: 107.9967°
perigee height: 744 km
apogee height: 747 km
right ascension of ascending node: 42.8698°
argument of perigee: 257.9587°
revolutions per day: 14.43876910
mean anomaly at epoch: 102.1296°
orbit number at epoch: 25230

The dashed part of the orbit path shows where the satellite is in the earth's shadow,  

DLR